GW5226 Weather Reports


time (UTC)temp
C
wind
direction
speed
KPH
gust
KPH
rain 1hr
cm
rain 24hr
cm
rain mn
cm
humidity
%
barometer
mb
20260507012604 11 263 3.2 6.4 0.00 0.00 0.00 33 960.3
20260507012102 11 332 3.2 8.0 0.00 0.00 0.00 33 960.3
20260507011603 11 311 3.2 8.0 0.00 0.00 0.00 32 960.3
20260507011100 11 316 4.8 11.3 0.00 0.00 0.00 32 960.3
20260507010600 11 324 6.4 17.7 0.00 0.00 0.00 31 960.3
20260507010100 11 309 6.4 17.7 0.00 0.00 0.00 31 960.3
20260507005600 11 287 6.4 14.5 0.00 0.00 0.00 30 960.3
20260507005100 12 307 6.4 16.1 0.00 0.00 0.00 30 960.3
20260507004601 12 311 6.4 16.1 0.00 0.00 0.00 30 960.3
20260507004101 12 320 6.4 16.1 0.00 0.00 0.00 30 960.3
20260507003600 12 285 6.4 16.1 0.00 0.00 0.00 30 960.3
20260507003100 12 251 6.4 12.9 0.00 0.00 0.00 30 960.4
20260507002601 12 256 6.4 16.1 0.00 0.00 0.00 30 960.4
20260507002101 12 298 8.0 19.3 0.00 0.00 0.00 29 960.4
20260507001601 12 4 9.7 19.3 0.00 0.00 0.00 29 960.5
20260507001100 12 320 9.7 14.5 0.00 0.00 0.00 29 960.6
20260507000601 12 317 8.0 17.7 0.00 0.00 0.00 29 960.5
20260507000058 12 304 8.0 17.7 0.00 0.00 0.00 30 960.6
20260506235559 12 280 8.0 19.3 0.00 0.00 0.00 30 960.6
20260506235058 12 325 9.7 19.3 0.00 0.00 0.00 30 960.7
20260506234558 12 317 8.0 17.7 0.00 0.00 0.00 29 960.7
20260506234058 12 294 6.4 17.7 0.00 0.00 0.00 30 960.6
20260506233558 13 309 6.4 14.5 0.00 0.00 0.00 29 960.6
20260506233058 13 279 6.4 14.5 0.00 0.00 0.00 29 960.6
20260506232558 13 299 6.4 14.5 0.00 0.00 0.00 30 960.7
20260506232059 13 294 6.4 14.5 0.00 0.00 0.00 29 960.7
20260506231559 13 211 6.4 14.5 0.00 0.00 0.00 29 960.7
20260506231058 13 88 8.0 20.9 0.00 0.00 0.00 29 960.5
20260506230558 13 289 8.0 20.9 0.00 0.00 0.00 29 960.6
20260506230058 12 286 6.4 14.5 0.00 0.00 0.00 30 960.7
20260506225059 12 285 9.7 17.7 0.00 0.00 0.00 29 960.8
20260506224556 12 311 8.0 17.7 0.00 0.00 0.00 29 960.9
20260506224053 12 251 8.0 14.5 0.00 0.00 0.00 29 960.9
20260506223550 12 302 8.0 14.5 0.00 0.00 0.00 30 961.0
20260506223050 13 334 8.0 19.3 0.00 0.00 0.00 29 960.9
20260506222551 13 204 9.7 19.3 0.00 0.00 0.00 29 961.1
20260506222050 13 319 9.7 17.7 0.00 0.00 0.00 28 960.9
20260506221551 13 311 11.3 17.7 0.00 0.00 0.00 30 960.8
20260506221050 13 328 9.7 17.7 0.00 0.00 0.00 29 961.0
20260506220551 13 317 9.7 22.5 0.00 0.00 0.00 29 961.1
20260506220050 13 330 9.7 22.5 0.00 0.00 0.00 29 961.2
20260506215550 13 110 9.7 19.3 0.00 0.00 0.00 30 961.2
20260506215051 13 326 9.7 22.5 0.00 0.00 0.00 29 961.2
20260506214551 13 345 9.7 22.5 0.00 0.00 0.00 29 961.0
20260506214051 13 322 8.0 20.9 0.00 0.00 0.00 29 961.1
20260506213551 13 321 9.7 20.9 0.00 0.00 0.00 29 961.3
20260506213051 13 307 9.7 17.7 0.00 0.00 0.00 30 961.1
20260506212545 12 313 8.0 17.7 0.00 0.00 0.00 30 961.5
20260506212041 12 326 8.0 22.5 0.00 0.00 0.00 30 961.5
20260506211541 12 269 9.7 22.5 0.00 0.00 0.00 30 961.5
20260506211042 12 315 9.7 17.7 0.00 0.00 0.00 31 961.4
20260506210542 12 312 8.0 14.5 0.00 0.00 0.00 31 961.8
20260506210042 12 325 11.3 20.9 0.00 0.00 0.00 32 961.9
20260506205542 12 314 9.7 20.9 0.00 0.00 0.00 32 961.9
20260506205041 12 321 8.0 19.3 0.00 0.00 0.00 32 961.7
20260506204542 12 319 8.0 16.1 0.00 0.00 0.00 32 962.0
20260506204042 12 307 8.0 17.7 0.00 0.00 0.00 33 962.0
20260506203542 12 315 8.0 17.7 0.00 0.00 0.00 33 962.1
20260506203042 11 311 8.0 19.3 0.00 0.00 0.00 34 962.2
20260506202543 12 312 9.7 19.3 0.00 0.00 0.00 33 962.3
20260506202310 12 320 9.7 22.5 0.00 0.00 0.00 34 962.2
20260506201541 12 352 9.7 22.5 0.00 0.00 0.00 34 962.2
20260506201045 12 299 9.7 19.3 0.00 0.00 0.00 34 962.3
20260506200539 12 314 9.7 19.3 0.00 0.00 0.00 34 962.2
20260506200040 12 317 9.7 17.7 0.00 0.00 0.00 34 962.2
20260506195540 12 282 6.4 17.7 0.00 0.00 0.00 34 962.3
20260506195310 12 342 6.4 20.9 0.00 0.00 0.00 34 962.3
20260506194540 12 300 8.0 20.9 0.00 0.00 0.00 34 962.4
20260506194040 12 248 6.4 20.9 0.00 0.00 0.00 34 962.5
20260506193540 12 236 8.0 17.7 0.00 0.00 0.00 34 962.5
20260506193041 11 315 9.7 20.9 0.00 0.00 0.00 34 962.5
20260506192540 11 245 8.0 20.9 0.00 0.00 0.00 34 962.7
20260506192040 12 307 8.0 22.5 0.00 0.00 0.00 34 962.7
20260506191540 12 264 9.7 22.5 0.00 0.00 0.00 33 962.8
20260506190542 12 290 8.0 17.7 0.00 0.00 0.00 33 962.4
20260506185542 11 317 9.7 20.9 0.00 0.00 0.00 35 962.4
20260506185038 11 298 9.7 22.5 0.00 0.00 0.00 35 963.0
20260506184535 11 324 9.7 22.5 0.00 0.00 0.00 34 962.9
20260506184254 11 339 9.7 20.9 0.00 0.00 0.00 37 963.1
20260506183535 11 326 11.3 25.7 0.00 0.00 0.00 36 962.9
20260506183035 11 321 9.7 25.7 0.00 0.00 0.00 37 963.3
20260506182534 11 326 9.7 22.5 0.00 0.00 0.00 36 963.2
20260506182035 11 299 8.0 19.3 0.00 0.00 0.00 37 962.7
20260506181535 11 299 9.7 22.5 0.00 0.00 0.00 37 962.9
20260506181035 11 288 8.0 22.5 0.00 0.00 0.00 37 963.5
20260506180535 11 168 8.0 19.3 0.00 0.00 0.00 36 963.6
20260506180036 11 316 8.0 17.7 0.00 0.00 0.00 37 963.1
20260506175800 11 310 9.7 24.1 0.00 0.00 0.00 37 963.7
20260506175036 11 310 9.7 24.1 0.00 0.00 0.00 36 963.2
20260506174759 11 335 9.7 19.3 0.00 0.00 0.00 37 963.3
20260506174036 11 331 11.3 19.3 0.00 0.00 0.00 37 963.5
20260506173536 11 327 11.3 17.7 0.00 0.00 0.00 37 963.5
20260506173257 10 275 9.7 17.7 0.00 0.00 0.00 36 963.3
20260506172536 10 272 9.7 17.7 0.00 0.00 0.00 37 963.3
20260506172033 9 305 9.7 20.9 0.00 0.00 0.00 38 963.9
20260506171532 9 329 11.3 20.9 0.00 0.00 0.00 39 963.7
20260506171033 10 295 11.3 20.9 0.00 0.00 0.00 38 963.9
20260506170527 9 3 9.7 19.3 0.00 0.00 0.00 39 963.7
20260506170028 10 293 9.7 20.9 0.00 0.00 0.00 38 964.0
20260506165524 10 209 9.7 20.9 0.00 0.00 0.00 39 963.9
20260506165025 10 304 9.7 19.3 0.00 0.00 0.00 38 963.9
20260506164524 10 301 9.7 20.9 0.00 0.00 0.00 41 963.8
20260506164025 10 321 9.7 20.9 0.00 0.00 0.00 39 964.0
20260506163525 10 329 9.7 20.9 0.00 0.00 0.00 39 963.7
20260506163025 9 301 9.7 17.7 0.00 0.00 0.00 40 964.0
20260506162524 9 326 9.7 20.9 0.00 0.00 0.00 40 963.7
20260506162025 9 292 9.7 20.9 0.00 0.00 0.00 39 964.3
20260506161524 10 292 9.7 19.3 0.00 0.00 0.00 41 963.6
20260506161024 9 290 9.7 24.1 0.00 0.00 0.00 41 963.8
20260506160522 9 312 8.0 27.4 0.00 0.00 0.00 41 963.7
20260506160019 9 288 8.0 27.4 0.00 0.00 0.00 42 963.8
20260506155518 8 296 8.0 17.7 0.00 0.00 0.00 42 963.8
20260506155248 8 39 9.7 17.7 0.00 0.00 0.00 44 963.9
20260506154519 8 273 9.7 19.3 0.00 0.00 0.00 43 964.0
20260506154020 8 332 6.4 19.3 0.00 0.00 0.00 45 963.9
20260506153518 8 256 8.0 17.7 0.00 0.00 0.00 45 963.9
20260506153020 7 327 9.7 20.9 0.00 0.00 0.00 46 964.1
20260506152739 7 336 9.7 20.9 0.00 0.00 0.00 46 964.1
20260506152020 7 323 9.7 19.3 0.00 0.00 0.00 46 964.0
20260506151739 7 320 9.7 19.3 0.00 0.00 0.00 46 964.1
20260506151020 7 22 9.7 19.3 0.00 0.00 0.00 46 964.0
20260506150519 7 254 9.7 17.7 0.00 0.00 0.00 46 964.0
20260506150020 7 334 9.7 19.3 0.00 0.00 0.00 47 964.1
20260506145519 6 300 9.7 19.3 0.00 0.00 0.00 48 964.1
20260506145017 7 331 8.0 17.7 0.00 0.00 0.00 48 964.1
20260506144517 7 306 6.4 14.5 0.00 0.00 0.00 50 964.2
20260506144017 6 319 6.4 14.5 0.00 0.00 0.00 50 964.1
20260506143745 6 340 6.4 11.3 0.00 0.00 0.00 50 964.1
20260506143016 6 308 4.8 11.3 0.00 0.00 0.00 50 964.2
20260506142517 6 300 4.8 11.3 0.00 0.00 0.00 52 964.2
20260506141517 6 337 4.8 9.7 0.00 0.00 0.00 52 964.1
20260506141017 6 321 4.8 9.7 0.00 0.00 0.00 51 964.1
20260506140517 6 337 3.2 9.7 0.00 0.00 0.00 52 964.1
20260506140017 5 315 3.2 8.0 0.00 0.00 0.00 53 964.1
20260506135517 5 284 3.2 8.0 0.00 0.00 0.00 55 964.0
20260506135239 5 297 3.2 6.4 0.00 0.00 0.00 57 964.0
20260506134741 5 28 1.6 6.4 0.00 0.00 0.00 60 964.1
20260506134237 5 0 1.6 6.4 0.00 0.00 0.00 61 964.1
20260506133518 5 317 1.6 9.7 0.00 0.00 0.00 61 964.1
20260506133018 5 271 1.6 11.3 0.00 0.00 0.00 63 964.0
20260506132514 5 315 3.2 11.3 0.00 0.00 0.00 64 963.9
20260506132015 4 241 3.2 11.3 0.00 0.00 0.00 64 963.9
20260506131512 3 303 3.2 9.7 0.00 0.00 0.00 66 963.8
20260506131012 3 300 1.6 6.4 0.00 0.00 0.00 67 963.9
20260506130512 3 305 1.6 6.4 0.00 0.00 0.00 67 963.8
20260506130231 3 0 1.6 4.8 0.00 0.00 0.00 67 963.8
20260506125509 2 103 1.6 3.2 0.00 0.00 0.00 67 963.8
20260506125010 2 310 0.0 3.2 0.00 0.00 0.00 68 963.7
20260506124734 1 186 0.0 1.6 0.00 0.00 0.00 68 963.7
20260506124009 1 0 0.0 3.2 0.00 0.00 0.00 72 963.7
20260506123742 0 0 0.0 3.2 0.00 0.00 0.00 73 963.7
20260506123009 0 0 0.0 3.2 0.00 0.00 0.00 75 963.7
20260506122509 0 0 0.0 3.2 0.00 0.00 0.00 76 963.7
20260506122010 0 0 0.0 3.2 0.00 0.00 0.00 78 963.8
20260506121510 -1 294 0.0 3.2 0.00 0.00 0.00 80 963.8
20260506121010 -1 0 0.0 3.2 0.00 0.00 0.00 80 963.7
20260506120509 -1 227 0.0 3.2 0.00 0.00 0.00 81 963.6
20260506120009 -1 0 0.0 1.6 0.00 0.00 0.00 81 963.7
20260506115509 -1 198 0.0 1.6 0.00 0.00 0.00 81 963.7
20260506115010 -1 265 0.0 1.6 0.00 0.00 0.00 81 963.6
20260506114510 -1 0 0.0 1.6 0.00 0.00 0.00 81 963.5
20260506114228 -1 0 0.0 3.2 0.00 0.00 0.00 81 963.4
20260506113510 -1 0 0.0 3.2 0.00 0.00 0.00 81 963.4
20260506113231 -1 0 0.0 3.2 0.00 0.00 0.00 81 963.4
20260506112508 -1 286 0.0 3.2 0.00 0.00 0.00 82 963.2
20260506112007 -2 0 0.0 1.6 0.00 0.00 0.00 83 963.3
20260506111506 -2 0 0.0 1.6 0.00 0.00 0.00 82 963.2
20260506111007 -1 0 0.0 3.2 0.00 0.00 0.00 81 963.2
20260506110507 -1 0 0.0 3.2 0.00 0.00 0.00 80 963.1
20260506110007 -1 337 0.0 3.2 0.00 0.00 0.00 80 963.2
20260506105506 -1 0 1.6 3.2 0.00 0.00 0.00 80 963.1
20260506104507 -2 0 0.0 3.2 0.00 0.00 0.00 80 963.1
20260506104008 -2 221 0.0 3.2 0.00 0.00 0.00 81 963.1
20260506103508 -2 0 0.0 3.2 0.00 0.00 0.00 79 963.2
20260506103226 -1 0 0.0 3.2 0.00 0.00 0.00 79 963.0
20260506102506 -1 227 0.0 1.6 0.00 0.00 0.00 79 963.0
20260506102004 -1 0 0.0 1.6 0.00 0.00 0.00 79 963.2
20260506101502 -1 270 0.0 1.6 0.00 0.00 0.00 78 963.2
20260506101001 -1 0 0.0 1.6 0.00 0.00 0.00 78 963.1
20260506100459 -1 200 0.0 1.6 0.00 0.00 0.00 77 963.0
20260506095958 -1 235 0.0 1.6 0.00 0.00 0.00 77 963.0
20260506095459 -1 0 0.0 1.6 0.00 0.00 0.00 76 963.0
20260506094958 -1 0 0.0 1.6 0.00 0.00 0.00 76 963.0
20260506094459 -1 0 0.0 1.6 0.00 0.00 0.00 77 962.9
20260506093956 -1 0 0.0 1.6 0.00 0.00 0.00 76 962.9
20260506093455 -1 0 0.0 1.6 0.00 0.00 0.00 76 962.8
20260506092956 -1 0 0.0 3.2 0.00 0.00 0.00 75 962.7
20260506092455 0 0 0.0 3.2 0.00 0.00 0.00 75 962.8
20260506091455 0 0 0.0 1.6 0.00 0.00 0.00 74 962.8
20260506090953 0 0 0.0 3.2 0.00 0.00 0.00 74 962.8
20260506090453 0 287 0.0 3.2 0.00 0.00 0.00 73 962.6
20260506085952 0 0 0.0 1.6 0.00 0.00 0.00 74 962.7
20260506085453 0 0 0.0 3.2 0.00 0.00 0.00 74 962.7
20260506084953 0 0 0.0 3.2 0.00 0.00 0.00 73 962.6
20260506084454 0 0 0.0 3.2 0.00 0.00 0.00 72 962.6
20260506083954 0 0 0.0 3.2 0.00 0.00 0.00 71 962.6
20260506083454 0 245 1.6 3.2 0.00 0.00 0.00 71 962.6
20260506082951 0 286 1.6 3.2 0.00 0.00 0.00 70 962.5
20260506082450 0 297 1.6 3.2 0.00 0.00 0.00 70 962.4
20260506081951 0 293 0.0 3.2 0.00 0.00 0.00 72 962.5
20260506081450 0 0 0.0 1.6 0.00 0.00 0.00 73 962.5
20260506080947 0 0 0.0 3.2 0.00 0.00 0.00 73 962.4
20260506080447 0 243 0.0 3.2 0.00 0.00 0.00 73 962.3
20260506072948 1 214 0.0 3.2 0.00 0.00 0.00 67 962.0
20260506072446 1 302 0.0 3.2 0.00 0.00 0.00 67 961.9
20260506071945 1 97 0.0 3.2 0.00 0.00 0.00 67 961.9
20260506070445 1 297 1.6 4.8 0.00 0.00 0.00 67 962.2
20260506061947 1 289 0.0 3.2 0.00 0.00 0.00 66 962.4
20260506061446 1 0 0.0 3.2 0.00 0.00 0.00 66 962.5
20260506060946 1 305 0.0 4.8 0.00 0.00 0.00 65 962.4
20260506060447 1 0 1.6 4.8 0.00 0.00 0.00 64 962.2
20260506050938 2 0 3.2 9.7 0.00 0.00 0.00 59 961.7
20260506050438 2 311 3.2 9.7 0.00 0.00 0.00 59 961.6
20260506044938 3 309 4.8 11.3 0.00 0.00 0.00 58 961.8
20260506043936 3 317 4.8 11.3 0.00 0.00 0.00 58 961.8
20260506043433 3 297 4.8 11.3 0.00 0.00 0.00 57 961.8
20260506042933 3 294 6.4 11.3 0.00 0.00 0.00 57 961.7
20260506041929 3 295 4.8 11.3 0.00 0.00 0.00 56 961.7
20260506041430 3 316 4.8 11.3 0.00 0.00 0.00 56 961.9
20260506040930 3 231 4.8 11.3 0.00 0.00 0.00 57 962.0
20260506035928 3 290 4.8 9.7 0.00 0.00 0.00 56 962.1
20260506035428 3 312 3.2 9.7 0.00 0.00 0.00 56 962.1
20260506034928 3 311 3.2 9.7 0.00 0.00 0.00 55 962.1
20260506034428 3 0 3.2 8.0 0.00 0.00 0.00 55 962.1
20260506033929 3 330 3.2 8.0 0.00 0.00 0.00 54 961.9
20260506033429 4 310 1.6 6.4 0.00 0.00 0.00 54 961.9
20260506032428 4 302 1.6 6.4 0.00 0.00 0.00 54 961.8
20260506031924 4 291 1.6 4.8 0.00 0.00 0.00 53 961.8
20260506031425 5 286 3.2 6.4 0.00 0.00 0.00 52 961.8
20260506030924 5 273 3.2 6.4 0.00 0.00 0.00 50 961.7
20260506030422 5 292 3.2 6.4 0.00 0.00 0.00 49 961.6
20260506024921 5 290 3.2 6.4 0.00 0.00 0.00 51 961.7
20260506024422 5 299 3.2 6.4 0.00 0.00 0.00 51 961.6
20260506023422 6 297 4.8 9.7 0.00 0.00 0.00 49 961.3
20260506022422 6 286 4.8 12.9 0.00 0.00 0.00 48 961.1
20260506021922 6 305 4.8 14.5 0.00 0.00 0.00 48 961.1
20260506021422 6 328 6.4 14.5 0.00 0.00 0.00 47 960.9
20260506020922 6 299 6.4 12.9 0.00 0.00 0.00 46 960.8
20260506020423 6 310 4.8 12.9 0.00 0.00 0.00 45 960.7
20260506015922 6 292 4.8 16.1 0.00 0.00 0.00 45 960.6
20260506014917 7 279 4.8 12.9 0.00 0.00 0.00 44 960.7
20260506014414 7 304 4.8 14.5 0.00 0.00 0.00 44 960.6
20260506013910 7 6 6.4 14.5 0.00 0.00 0.00 43 960.4
20260506013411 7 282 6.4 16.1 0.00 0.00 0.00 43 960.5